Polaris — JD2797 — position and weather

sailwx.info

Track history (hours):
 
Tides and Currents Weather Stations Pressure Air Temp Water Temp Dewpoint Dewpoint Depression Visibility Wind Speed Wind Dir Waves Ship Positions

Polaris

Last reported at 2014-Oct-20 23:07 UTC. Time now 2014-Oct-21 00:33 UTC.
Position N 35°19' E 139°38'.

Length 26 m.

MMSI: 431000764.

Date/timePositionNaut miles runAvg speedWind from/ knotsBaromVisibWave heightAir tempDewpointWater temp
2014-Oct-20 23:07N 35°19' E 139°38'6 9.9
2014-Oct-20 22:33N 35°23' E 139°42'3 3.2
2014-Oct-20 21:34N 35°26' E 139°44'1110.6
2014-Oct-20 20:33N 35°15' E 139°47'1 1.4
2014-Oct-20 19:33N 35°15' E 139°45'  
2014-Oct-16 11:07N 35°19' E 139°38'6 9.8
2014-Oct-16 10:32N 35°16' E 139°45'4 4.0
2014-Oct-16 09:33N 35°20' E 139°43'3 3.2
2014-Oct-16 08:34N 35°23' E 139°43'5 4.5
2014-Oct-16 07:21N 35°19' E 139°38'0 0.0
2014-Oct-16 06:33N 35°19' E 139°38'0 0.0
2014-Oct-16 05:27N 35°19' E 139°38'0 0.0
2014-Oct-16 04:29N 35°19' E 139°38'0 0.0
2014-Oct-16 03:11N 35°19' E 139°38'0 0.0
2014-Oct-16 02:26N 35°19' E 139°38'1 0.9
2014-Oct-16 01:33N 35°19' E 139°39'6 6.4
2014-Oct-16 00:33N 35°23' E 139°46'7 1.2
2014-Oct-15 18:23N 35°19' E 139°38'0 0.0
2014-Oct-15 17:33N 35°19' E 139°38'0 0.0
2014-Oct-15 16:31N 35°19' E 139°38'0 0.0
2014-Oct-15 15:33N 35°19' E 139°38'0 0.0
2014-Oct-15 06:32N 35°19' E 139°38'8 8.6
2014-Oct-15 05:33N 35°26' E 139°44'3 0.5
2014-Oct-15 00:32N 35°26' E 139°47'1010.1
2014-Oct-14 23:32N 35°19' E 139°38'0 0.0
2014-Oct-14 22:33N 35°19' E 139°38'  
2014-Oct-11 08:33N 35°21' E 139°43'5 4.8
2014-Oct-11 07:33N 35°17' E 139°45'3 3.3
2014-Oct-11 06:32N 35°14' E 139°46'  
Track history (hours):
 
Tides and Currents Weather Stations Pressure Air Temp Water Temp Dewpoint Dewpoint Depression Visibility Wind Speed Wind Dir Waves Ship Positions

Polaris

Last reported at 2014-Oct-20 23:07 UTC. Time now 2014-Oct-21 00:33 UTC.
Position N 35°19' E 139°38'.

Length 26 m.

MMSI: 431000764.

Date/timePositionNaut miles runAvg speedWind from/ knotsBaromVisibWave heightAir tempDewpointWater temp
2014-Oct-20 23:07N 35°19' E 139°38'6 9.9
2014-Oct-20 22:33N 35°23' E 139°42'3 3.2
2014-Oct-20 21:34N 35°26' E 139°44'1110.6
2014-Oct-20 20:33N 35°15' E 139°47'1 1.4
2014-Oct-20 19:33N 35°15' E 139°45'  
2014-Oct-16 11:07N 35°19' E 139°38'6 9.8
2014-Oct-16 10:32N 35°16' E 139°45'4 4.0
2014-Oct-16 09:33N 35°20' E 139°43'3 3.2
2014-Oct-16 08:34N 35°23' E 139°43'5 4.5
2014-Oct-16 07:21N 35°19' E 139°38'0 0.0
2014-Oct-16 06:33N 35°19' E 139°38'0 0.0
2014-Oct-16 05:27N 35°19' E 139°38'0 0.0
2014-Oct-16 04:29N 35°19' E 139°38'0 0.0
2014-Oct-16 03:11N 35°19' E 139°38'0 0.0
2014-Oct-16 02:26N 35°19' E 139°38'1 0.9
2014-Oct-16 01:33N 35°19' E 139°39'6 6.4
2014-Oct-16 00:33N 35°23' E 139°46'7 1.2
2014-Oct-15 18:23N 35°19' E 139°38'0 0.0
2014-Oct-15 17:33N 35°19' E 139°38'0 0.0
2014-Oct-15 16:31N 35°19' E 139°38'0 0.0
2014-Oct-15 15:33N 35°19' E 139°38'0 0.0
2014-Oct-15 06:32N 35°19' E 139°38'8 8.6
2014-Oct-15 05:33N 35°26' E 139°44'3 0.5
2014-Oct-15 00:32N 35°26' E 139°47'1010.1
2014-Oct-14 23:32N 35°19' E 139°38'0 0.0
2014-Oct-14 22:33N 35°19' E 139°38'  
2014-Oct-11 08:33N 35°21' E 139°43'5 4.8
2014-Oct-11 07:33N 35°17' E 139°45'3 3.3
2014-Oct-11 06:32N 35°14' E 139°46'  

Dump ship's entire track history